KD8JAM Weather Reports


time (UTC)temp
C
wind
direction
speed
KPH
gust
KPH
rain 1hr
cm
rain 24hr
cm
rain mn
cm
humidity
%
barometer
mb
20260503051031 3 70 0.0 0.0 0.00 0.00 0.00 73 1009.5
20260503050526 3 77 0.0 0.0 0.00 0.00 0.00 73 1009.4
20260503050024 3 71 0.0 0.0 0.00 0.00 0.00 72 1009.3
20260503045521 2 70 0.0 0.0 0.00 0.00 0.00 72 1009.9
20260503045018 2 86 0.0 1.6 0.00 0.00 0.00 72 1009.7
20260503044515 2 80 0.0 0.0 0.00 0.00 0.00 71 1010.1
20260503044013 2 85 3.2 3.2 0.00 0.00 0.00 72 1010.0
20260503043508 2 117 1.6 1.6 0.00 0.00 0.00 71 1010.1
20260503043004 2 79 0.0 1.6 0.00 0.00 0.00 72 1009.9
20260503042501 2 123 3.2 3.2 0.00 0.00 0.00 71 1010.0
20260503041958 2 165 4.8 8.0 0.00 0.00 0.00 71 1010.0
20260503041455 2 157 4.8 4.8 0.00 0.00 0.00 71 1009.9
20260503040953 2 97 1.6 1.6 0.00 0.00 0.00 71 1009.9
20260503040450 2 94 1.6 1.6 0.00 0.00 0.00 71 1010.0
20260503035947 2 119 4.8 4.8 0.00 0.00 0.00 70 1010.0
20260503035443 2 124 4.8 4.8 0.00 0.00 0.00 70 1009.9
20260503034942 2 124 1.6 3.2 0.00 0.00 0.00 71 1010.3
20260503034439 2 157 3.2 3.2 0.00 0.00 0.00 70 1010.2
20260503033935 2 134 3.2 4.8 0.00 0.00 0.00 69 1010.4
20260503033433 2 95 1.6 3.2 0.00 0.00 0.00 70 1010.4
20260503032930 2 123 1.6 1.6 0.00 0.00 0.00 70 1010.6
20260503032424 2 87 4.8 4.8 0.00 0.00 0.00 70 1010.7
20260503031921 2 92 3.2 8.0 0.00 0.00 0.00 70 1010.9
20260503031418 2 145 4.8 4.8 0.00 0.00 0.00 70 1011.1
20260503030915 2 124 3.2 3.2 0.00 0.00 0.00 70 1011.0
20260503030412 2 97 0.0 1.6 0.00 0.00 0.00 70 1011.0
20260503025908 2 189 3.2 3.2 0.00 0.00 0.00 69 1011.2
20260503025405 2 87 0.0 1.6 0.00 0.00 0.00 71 1011.4
20260503024902 2 86 1.6 1.6 0.00 0.00 0.00 69 1011.3
20260503024359 2 96 3.2 3.2 0.00 0.00 0.00 68 1011.5
20260503023855 2 119 3.2 3.2 0.00 0.00 0.00 68 1011.7
20260503023352 3 126 1.6 3.2 0.00 0.00 0.00 68 1011.6
20260503022849 3 169 3.2 4.8 0.00 0.00 0.00 67 1011.8
20260503022344 3 85 4.8 4.8 0.00 0.00 0.00 67 1011.6
20260503021841 3 89 1.6 3.2 0.00 0.00 0.00 67 1011.6
20260503021337 3 80 1.6 3.2 0.00 0.00 0.00 67 1011.7
20260503020834 3 80 1.6 1.6 0.00 0.00 0.00 67 1011.5
20260503020332 3 72 0.0 1.6 0.00 0.00 0.00 68 1011.7
20260503015829 3 105 3.2 3.2 0.00 0.00 0.00 66 1011.7
20260503015326 3 137 3.2 3.2 0.00 0.00 0.00 67 1011.8
20260503014821 3 88 1.6 1.6 0.00 0.00 0.00 68 1012.0
20260503014319 3 83 1.6 3.2 0.00 0.00 0.00 67 1012.0
20260503013816 3 80 0.0 0.0 0.00 0.00 0.00 67 1011.9
20260503013314 3 162 4.8 4.8 0.00 0.00 0.00 66 1011.9
20260503012811 3 108 1.6 1.6 0.00 0.00 0.00 66 1012.0
20260503012308 3 96 0.0 1.6 0.00 0.00 0.00 65 1012.0
20260503011804 3 75 0.0 0.0 0.00 0.00 0.00 65 1012.2
20260503011302 3 133 1.6 3.2 0.00 0.00 0.00 64 1012.0
20260503010758 3 78 1.6 1.6 0.00 0.00 0.00 64 1012.1
20260503010255 3 79 0.0 1.6 0.00 0.00 0.00 64 1012.2
20260503005752 3 217 3.2 3.2 0.00 0.00 0.00 62 1012.3
20260503005249 3 72 0.0 0.0 0.00 0.00 0.00 62 1012.4
20260503004745 4 73 1.6 3.2 0.00 0.00 0.00 61 1012.4
20260503004244 4 123 1.6 3.2 0.00 0.00 0.00 60 1012.5
20260503003740 5 85 4.8 4.8 0.00 0.00 0.00 59 1012.4
20260503003237 5 56 1.6 1.6 0.00 0.00 0.00 59 1012.4
20260503002734 5 67 0.0 1.6 0.00 0.00 0.00 57 1012.5
20260503002231 5 73 0.0 1.6 0.00 0.00 0.00 56 1012.4
20260503001727 5 71 3.2 4.8 0.00 0.00 0.00 55 1012.6
20260503001224 5 85 4.8 4.8 0.00 0.00 0.00 54 1012.7
20260503000722 5 58 3.2 4.8 0.00 0.00 0.00 55 1012.8
20260503000219 6 115 1.6 3.2 0.00 0.00 0.00 57 1012.5
20260502235716 6 83 0.0 1.6 0.00 0.00 0.00 56 1012.7
20260502235214 6 146 4.8 4.8 0.00 0.00 0.00 54 1012.7
20260502234709 6 80 0.0 1.6 0.00 0.00 0.00 54 1012.7
20260502234207 6 133 4.8 4.8 0.00 0.00 0.00 53 1012.8
20260502233702 7 98 3.2 3.2 0.00 0.00 0.00 53 1012.8
20260502233200 7 86 1.6 1.6 0.00 0.00 0.00 52 1012.9
20260502232655 7 82 3.2 4.8 0.00 0.00 0.00 51 1013.2
20260502232153 7 116 1.6 3.2 0.00 0.00 0.00 50 1012.8
20260502231649 8 89 3.2 3.2 0.00 0.00 0.00 51 1013.0
20260502231147 8 189 3.2 4.8 0.00 0.00 0.00 51 1013.0
20260502230646 8 96 3.2 4.8 0.00 0.00 0.00 51 1013.3
20260502230144 8 84 3.2 3.2 0.00 0.00 0.00 50 1013.0
20260502225639 8 109 6.4 8.0 0.00 0.00 0.00 50 1013.2
20260502225137 8 135 4.8 8.0 0.00 0.00 0.00 50 1013.0
20260502224633 8 130 6.4 9.7 0.00 0.00 0.00 49 1013.2
20260502224129 8 115 1.6 3.2 0.00 0.00 0.00 50 1013.2
20260502223627 8 107 3.2 3.2 0.00 0.00 0.00 50 1013.3
20260502223125 8 93 3.2 4.8 0.00 0.00 0.00 50 1013.4
20260502222622 8 109 6.4 11.3 0.00 0.00 0.00 48 1013.6
20260502222119 9 61 4.8 9.7 0.00 0.00 0.00 49 1013.4
20260502221614 9 139 8.0 11.3 0.00 0.00 0.00 49 1013.4
20260502221112 10 106 8.0 11.3 0.00 0.00 0.00 49 1013.5
20260502220608 10 36 1.6 1.6 0.00 0.00 0.00 47 1013.5
20260502220059 10 190 4.8 4.8 0.00 0.00 0.00 40 1013.5
20260502215556 10 357 3.2 3.2 0.00 0.00 0.00 40 1013.4
20260502215053 11 38 0.0 1.6 0.00 0.00 0.00 39 1013.3
20260502214549 11 180 4.8 4.8 0.00 0.00 0.00 40 1013.4
20260502214047 10 48 0.0 0.0 0.00 0.00 0.00 41 1013.5
20260502213544 11 313 1.6 3.2 0.00 0.00 0.00 39 1013.7
20260502213042 11 162 3.2 3.2 0.00 0.00 0.00 39 1013.7
20260502212540 11 176 4.8 4.8 0.00 0.00 0.00 39 1013.9
20260502212038 11 242 4.8 4.8 0.00 0.00 0.00 38 1014.0
20260502211533 10 48 1.6 1.6 0.00 0.00 0.00 40 1013.9
20260502211030 11 89 1.6 4.8 0.00 0.00 0.00 38 1013.8
20260502210527 11 21 3.2 3.2 0.00 0.00 0.00 40 1014.0
20260502210024 10 204 3.2 3.2 0.00 0.00 0.00 42 1014.3
20260502205521 10 36 3.2 3.2 0.00 0.00 0.00 40 1014.1
20260502205018 10 14 1.6 3.2 0.00 0.00 0.00 40 1014.4
20260502204515 10 179 6.4 9.7 0.00 0.00 0.00 40 1014.3
20260502204013 10 334 4.8 4.8 0.00 0.00 0.00 39 1014.5
20260502203509 10 321 3.2 4.8 0.00 0.00 0.00 37 1014.4
20260502203006 10 324 4.8 8.0 0.00 0.00 0.00 40 1014.6
20260502202503 11 223 4.8 8.0 0.00 0.00 0.00 38 1014.5
20260502202001 11 113 1.6 1.6 0.00 0.00 0.00 40 1014.6
20260502201456 11 348 4.8 9.7 0.00 0.00 0.00 38 1014.8
20260502200953 10 129 3.2 4.8 0.00 0.00 0.00 38 1014.8
20260502200449 11 250 4.8 4.8 0.00 0.00 0.00 38 1014.7
20260502195947 10 235 6.4 8.0 0.00 0.00 0.00 39 1014.8
20260502195444 10 11 3.2 3.2 0.00 0.00 0.00 39 1014.7
20260502194940 10 4 3.2 3.2 0.00 0.00 0.00 41 1014.8
20260502194437 10 165 8.0 8.0 0.00 0.00 0.00 41 1015.1
20260502193933 10 116 6.4 9.7 0.00 0.00 0.00 40 1015.3
20260502193430 10 245 6.4 8.0 0.00 0.00 0.00 39 1015.3
20260502192925 10 301 6.4 8.0 0.00 0.00 0.00 40 1015.1
20260502192423 10 27 1.6 1.6 0.00 0.00 0.00 43 1015.2
20260502191920 10 198 6.4 9.7 0.00 0.00 0.00 42 1015.3
20260502191418 10 283 8.0 11.3 0.00 0.00 0.00 42 1015.5
20260502190915 10 239 3.2 4.8 0.00 0.00 0.00 44 1015.6
20260502190412 10 241 6.4 8.0 0.00 0.00 0.00 42 1015.6
20260502185908 9 304 1.6 3.2 0.00 0.00 0.00 46 1015.5
20260502185404 10 280 4.8 4.8 0.00 0.00 0.00 43 1016.0
20260502184901 10 298 4.8 4.8 0.00 0.00 0.00 45 1015.8
20260502184356 10 15 3.2 4.8 0.00 0.00 0.00 42 1015.9
20260502183853 9 345 4.8 4.8 0.00 0.00 0.00 45 1015.8
20260502183349 10 48 3.2 3.2 0.00 0.00 0.00 44 1015.9
20260502182844 10 64 1.6 1.6 0.00 0.00 0.00 47 1015.8
20260502182340 9 37 3.2 4.8 0.00 0.00 0.00 45 1016.0
20260502181837 9 241 4.8 8.0 0.00 0.00 0.00 47 1015.9
20260502181336 9 31 4.8 4.8 0.00 0.00 0.00 44 1016.1
20260502180833 10 15 6.4 8.0 0.00 0.00 0.00 48 1015.9
20260502180330 9 150 4.8 4.8 0.00 0.00 0.00 48 1016.2
20260502170249 9 339 1.6 3.2 0.00 0.00 0.00 54 1016.7
20260502164237 8 343 1.6 1.6 0.00 0.00 0.00 52 1016.7
20260502163732 8 51 4.8 4.8 0.00 0.00 0.00 53 1016.7
20260502163229 9 34 4.8 8.0 0.00 0.00 0.00 49 1016.9
20260502162726 8 27 4.8 4.8 0.00 0.00 0.00 51 1017.0
20260502162223 9 40 1.6 3.2 0.00 0.00 0.00 51 1017.0
20260502161720 8 295 4.8 4.8 0.00 0.00 0.00 52 1017.1
20260502161216 8 30 3.2 3.2 0.00 0.00 0.00 51 1017.0
20260502160715 8 50 4.8 4.8 0.00 0.00 0.00 48 1017.2
20260502160213 8 62 0.0 1.6 0.00 0.00 0.00 51 1017.2
20260502152132 8 357 3.2 4.8 0.00 0.00 0.00 51 1017.5
20260502151630 8 124 1.6 3.2 0.00 0.00 0.00 50 1017.3
20260502151127 8 200 3.2 4.8 0.00 0.00 0.00 51 1017.6
20260502150624 8 49 1.6 1.6 0.00 0.00 0.00 49 1017.5
20260502150120 8 30 1.6 1.6 0.00 0.00 0.00 49 1017.6
20260502130509 6 63 0.0 1.6 0.00 0.00 0.00 56 1018.2
20260502123452 5 348 1.6 1.6 0.00 0.00 0.00 60 1018.3
20260502122949 5 174 0.0 1.6 0.00 0.00 0.00 59 1018.5
20260502122444 5 87 0.0 0.0 0.00 0.00 0.00 58 1018.5
20260502121943 5 70 1.6 1.6 0.00 0.00 0.00 61 1018.4
20260502121440 5 87 0.0 0.0 0.00 0.00 0.00 59 1018.4
20260502120938 5 83 1.6 1.6 0.00 0.00 0.00 61 1018.3
20260502120433 4 72 0.0 0.0 0.00 0.00 0.00 62 1018.4
20260502115931 4 77 0.0 0.0 0.00 0.00 0.00 61 1018.6
20260502115428 3 67 0.0 0.0 0.00 0.00 0.00 63 1018.4
20260502114924 3 212 1.6 3.2 0.00 0.00 0.00 63 1018.7
20260502114421 3 77 0.0 0.0 0.00 0.00 0.00 61 1018.7
20260502113918 3 90 0.0 0.0 0.00 0.00 0.00 63 1018.6
20260502113416 2 109 1.6 1.6 0.00 0.00 0.00 65 1018.6
20260502112914 2 40 0.0 0.0 0.00 0.00 0.00 65 1018.6
20260502112411 2 67 0.0 0.0 0.00 0.00 0.00 66 1018.5
20260502111909 1 79 0.0 0.0 0.00 0.00 0.00 67 1018.6
20260502111406 1 67 0.0 0.0 0.00 0.00 0.00 66 1018.4
20260502110903 1 76 0.0 0.0 0.00 0.00 0.00 68 1018.5
20260502110401 1 63 1.6 1.6 0.00 0.00 0.00 68 1018.4
20260502105858 1 81 0.0 0.0 0.00 0.00 0.00 69 1018.5
20260502105355 1 55 0.0 1.6 0.00 0.00 0.00 69 1018.7
20260502104853 0 72 0.0 1.6 0.00 0.00 0.00 69 1018.5
20260502104350 0 55 0.0 1.6 0.00 0.00 0.00 70 1018.5
20260502103847 0 216 3.2 3.2 0.00 0.00 0.00 70 1018.4
20260502103344 0 34 1.6 3.2 0.00 0.00 0.00 71 1018.4
20260502102841 0 79 0.0 1.6 0.00 0.00 0.00 70 1018.4
20260502102338 0 48 0.0 0.0 0.00 0.00 0.00 70 1018.4
20260502101836 0 322 0.0 0.0 0.00 0.00 0.00 70 1018.5
20260502101334 0 85 0.0 0.0 0.00 0.00 0.00 70 1018.5
20260502100832 0 87 0.0 1.6 0.00 0.00 0.00 71 1018.5
20260502100331 0 107 0.0 1.6 0.00 0.00 0.00 72 1018.6
20260502091304 0 86 1.6 1.6 0.00 0.00 0.00 71 1018.4
20260502090802 0 103 1.6 1.6 0.00 0.00 0.00 72 1018.6
20260502090258 0 118 1.6 1.6 0.00 0.00 0.00 72 1018.7
20260502071153 0 186 3.2 3.2 0.00 0.00 0.00 70 1018.7
20260502070651 0 180 1.6 3.2 0.00 0.00 0.00 71 1018.7
20260502070149 0 214 4.8 4.8 0.00 0.00 0.00 70 1018.9
20260502065647 0 91 0.0 1.6 0.00 0.00 0.00 70 1018.9
20260502065144 0 161 1.6 1.6 0.00 0.00 0.00 68 1019.0
20260502064643 0 110 1.6 1.6 0.00 0.00 0.00 69 1019.0
20260502064140 0 224 1.6 3.2 0.00 0.00 0.00 69 1018.9
20260502063637 0 113 0.0 1.6 0.00 0.00 0.00 69 1019.0
20260502063135 0 125 0.0 1.6 0.00 0.00 0.00 70 1019.0
20260502062632 0 252 1.6 3.2 0.00 0.00 0.00 70 1019.1
20260502062130 0 193 1.6 3.2 0.00 0.00 0.00 70 1019.3
20260502061628 0 74 0.0 0.0 0.00 0.00 0.00 70 1019.4
20260502061125 0 96 1.6 1.6 0.00 0.00 0.00 70 1019.1
20260502060625 0 10 1.6 1.6 0.00 0.00 0.00 71 1019.2
20260502060122 0 134 1.6 1.6 0.00 0.00 0.00 71 1019.2
20260502055620 0 170 3.2 4.8 0.00 0.00 0.00 71 1019.0
20260502055118 0 249 1.6 3.2 0.00 0.00 0.00 71 1019.2
20260502054616 0 96 1.6 1.6 0.00 0.00 0.00 72 1019.2
20260502054113 0 220 0.0 1.6 0.00 0.00 0.00 72 1019.2
20260502053610 0 144 1.6 1.6 0.00 0.00 0.00 72 1019.0
20260502053107 0 100 3.2 4.8 0.00 0.00 0.00 71 1019.3
20260502052606 0 230 3.2 4.8 0.00 0.00 0.00 71 1019.4
20260502052104 0 186 3.2 3.2 0.00 0.00 0.00 72 1019.5
20260502051602 0 195 4.8 4.8 0.00 0.00 0.00 73 1019.3